Lapse_Rate
6.6 6.6 6.9 6.9 6.7 6.8 6.7 6.6 6.7 6.5 6.6 6.9 7.2 7.3 7.4 7.6 7.6 7.5 7.4 7.4 7.4 7.4 6.9 6.7 6.2 5.8 5.5 5.1 4.5 4.3 4.4 4.4 4.8 4.8 5.0 5.6 6.3 6.7 6.5 6.8 7.0 6.9 7.0
6.9 7.1 7.1 6.9 6.9 6.8 6.8 6.8 6.7 6.5 6.7 6.9 7.2 7.3 7.4 7.5 7.5 7.4 7.3 7.4 7.3 7.4 7.4 6.8 6.4 6.2 5.9 5.1 4.5 4.1 4.3 4.8 5.0 5.4 5.9 6.1 6.4 5.9 6.0 6.9 6.5 6.8 6.7
7.1 7.2 7.0 6.9 6.8 6.9 6.9 6.8 6.6 6.6 6.8 6.9 7.1 7.3 7.4 7.5 7.5 7.4 7.3 7.3 7.3 7.4 7.4 7.3 6.7 6.2 6.2 5.8 5.0 4.6 4.7 4.9 5.2 5.4 5.6 5.7 6.0 5.8 6.2 6.2 6.5 6.5 6.5
7.2 7.2 7.0 6.9 6.9 7.0 6.9 6.7 6.7 6.6 6.7 6.9 7.1 7.2 7.4 7.5 7.4 7.3 7.3 7.4 7.3 7.2 7.2 7.2 7.1 6.8 6.4 6.2 6.0 5.6 5.6 5.6 5.8 5.9 5.8 5.8 6.0 6.2 6.1 6.1 6.3 5.8 6.5
7.4 7.2 7.0 6.9 6.9 7.0 7.0 6.7 6.6 6.6 6.7 7.0 7.1 7.2 7.4 7.4 7.3 7.3 7.2 7.3 7.3 7.2 6.8 7.0 7.1 7.0 6.9 6.6 6.8 6.5 6.0 5.8 5.9 6.1 6.2 6.2 6.1 6.2 6.3 6.2 6.2 5.9 5.9
7.4 7.2 7.0 7.0 7.0 7.0 6.8 6.5 6.5 6.6 6.7 6.9 7.0 7.2 7.3 7.4 7.3 7.3 7.4 7.3 7.3 7.3 7.0 6.7 6.7 6.7 6.8 7.0 6.9 6.3 6.5 6.6 6.1 6.0 6.2 6.4 6.4 6.3 6.4 6.1 6.0 6.1 5.8
7.4 7.1 7.0 7.0 6.9 6.9 6.6 6.3 6.4 6.6 6.8 6.9 7.0 7.0 7.1 7.3 7.2 7.3 7.3 7.2 7.2 7.1 7.1 6.9 6.7 6.5 6.5 6.6 6.5 6.5 6.6 6.2 6.4 6.6 6.5 6.5 6.4 6.5 6.5 6.5 6.4 6.1 5.9
7.2 7.0 7.0 7.0 6.9 6.7 6.4 6.2 6.4 6.7 6.8 6.9 6.9 6.9 6.9 7.0 7.2 7.3 7.2 7.2 7.1 7.0 7.0 6.9 6.9 6.6 6.5 6.4 6.4 6.2 6.2 6.3 6.6 6.8 6.6 6.5 6.6 6.6 6.5 6.5 6.4 6.1 5.9
7.1 7.0 6.9 6.9 6.8 6.6 6.3 6.3 6.5 6.8 6.8 6.9 6.8 6.8 6.8 6.8 6.9 7.0 7.2 7.1 7.0 7.0 6.8 6.8 6.8 6.7 6.6 6.5 6.4 6.1 6.1 6.0 6.2 6.3 6.3 6.4 6.5 6.7 6.5 6.4 6.4 6.3 6.3
6.9 6.8 6.8 6.8 6.7 6.5 6.4 6.4 6.7 6.8 6.8 6.8 6.8 6.7 6.6 6.6 6.7 6.8 6.9 6.9 6.9 6.9 6.8 6.7 6.7 6.7 6.7 6.6 6.5 6.5 6.4 6.2 6.2 6.3 6.3 6.3 6.2 6.2 6.2 6.3 6.3 6.4 6.3
6.9 6.7 6.7 6.7 6.5 6.4 6.5 6.8 6.8 6.8 6.7 6.6 6.6 6.6 6.5 6.4 6.7 6.6 6.6 6.7 6.8 6.7 6.7 6.7 6.5 6.5 6.5 6.5 6.5 6.4 6.4 6.3 6.3 6.1 5.9 5.8 5.7 5.7 5.7 5.7 5.7 5.8 5.8
6.8 6.7 6.7 6.6 6.6 6.5 6.5 6.7 6.7 6.6 6.6 6.5 6.4 6.3 6.4 6.4 6.4 6.6 6.6 6.5 6.6 6.6 6.5 6.5 6.5 6.4 6.4 6.2 6.2 6.2 6.3 6.3 6.3 6.2 6.0 6.0 5.9 5.6 5.4 5.4 5.4 5.4 5.4
6.7 6.8 6.7 6.6 6.5 6.5 6.5 6.5 6.4 6.3 6.3 6.3 6.3 6.3 6.4 6.5 6.5 6.5 6.5 6.4 6.6 6.7 6.6 6.4 6.3 6.2 6.1 6.1 6.1 6.1 6.0 6.0 5.9 5.8 5.9 5.8 5.7 5.7 5.7 5.6 5.6 5.4 5.4
6.7 6.8 6.7 6.5 6.4 6.3 6.2 6.1 6.0 6.1 6.2 6.3 6.4 6.5 6.5 6.5 6.6 6.8 6.8 6.7 6.5 6.5 6.6 6.5 6.3 6.2 6.2 6.1 6.0 5.8 5.7 5.6 5.5 5.3 5.2 5.2 5.2 5.3 5.2 5.2 5.1 5.2 5.2
6.7 6.7 6.5 6.4 6.3 6.1 6.1 6.0 5.9 6.0 6.2 6.3 6.4 6.4 6.4 6.5 6.5 6.7 6.8 6.9 6.8 6.6 6.4 6.4 6.3 6.1 6.1 6.0 5.9 5.7 5.5 5.3 5.2 5.1 5.0 5.1 5.0 4.9 4.8 4.8 4.7 4.6 4.6
6.7 6.5 6.4 6.3 6.1 6.0 6.0 5.9 6.0 6.1 6.2 6.3 6.3 6.2 6.2 6.3 6.4 6.5 6.7 6.7 6.7 6.7 6.6 6.4 6.3 6.2 6.1 5.9 5.8 5.6 5.3 5.2 5.2 5.1 5.0 4.9 4.9 4.9 4.8 4.8 4.8 4.7 4.6
6.5 6.5 6.4 6.3 6.1 5.9 5.8 5.7 5.9 6.0 6.1 6.2 6.2 6.0 5.9 6.0 6.1 6.3 6.3 6.4 6.4 6.4 6.4 6.4 6.4 6.3 6.2 5.9 5.8 5.7 5.5 5.3 5.2 5.1 5.0 4.9 4.8 4.8 4.8 4.8 4.8 4.8 4.8
6.5 6.6 6.5 6.2 5.9 5.7 5.6 5.7 5.8 5.9 6.1 6.1 6.0 5.8 5.8 5.8 5.8 6.0 6.1 6.2 6.2 6.1 6.1 6.2 6.1 6.0 5.9 5.9 5.9 5.7 5.3 5.2 5.1 5.0 4.9 4.9 4.8 4.8 4.7 4.7 4.6 4.5 4.5
6.7 6.8 6.5 6.1 5.9 5.7 5.6 5.6 5.7 5.8 5.8 5.8 5.8 5.7 5.5 5.4 5.5 5.6 5.6 5.6 5.9 5.9 5.8 5.8 5.8 5.7 5.7 5.7 5.7 5.5 5.3 5.3 5.1 4.9 4.9 4.8 4.8 4.7 4.7 4.6 4.5 4.4 4.3
6.7 6.7 6.3 6.0 5.9 5.8 5.5 5.4 5.5 5.6 5.5 5.3 5.3 5.4 5.4 5.2 5.2 5.3 5.3 5.4 5.4 5.5 5.5 5.4 5.3 5.3 5.4 5.3 5.2 5.2 5.1 5.0 4.9 4.8 4.8 4.8 4.7 4.6 4.5 4.4 4.3 4.2 4.1
6.6 6.5 6.2 6.0 5.8 5.5 5.4 5.4 5.4 5.4 5.2 5.0 4.8 5.0 4.8 5.0 4.9 4.9 4.9 4.8 4.9 5.0 4.9 5.0 5.1 5.3 5.2 5.1 5.2 5.1 5.1 5.0 4.9 4.9 4.8 4.8 4.7 4.6 4.5 4.5 4.4 4.2 4.2
6.4 6.2 5.9 5.7 5.6 5.4 5.4 5.4 5.3 5.2 5.0 4.7 4.5 4.6 4.6 4.6 4.6 4.7 4.6 4.5 4.8 4.8 4.9 5.0 5.0 5.1 5.0 5.0 4.9 4.9 4.9 4.8 4.8 4.9 4.9 4.8 4.7 4.7 4.5 4.4 4.2 4.1 3.9
6.1 5.9 5.7 5.6 5.4 5.3 5.3 5.2 5.1 4.9 4.7 4.5 4.5 4.3 4.5 4.6 4.7 4.7 4.8 4.8 4.7 4.7 4.8 4.8 4.9 4.9 4.9 4.9 4.8 4.9 4.8 4.8 4.8 4.8 4.8 4.7 4.6 4.5 4.4 4.2 4.1 3.9 3.8
5.9 5.7 5.6 5.5 5.4 5.3 5.1 5.0 4.8 4.7 4.6 4.5 4.4 4.4 4.6 4.7 4.8 4.9 4.8 4.8 4.8 4.8 4.9 5.0 5.0 5.0 5.0 5.0 4.9 4.9 4.8 4.8 4.8 4.7 4.6 4.5 4.4 4.2 4.0 4.0 3.9 3.9 3.8
5.8 5.7 5.6 5.5 5.5 5.4 5.2 5.0 4.9 4.7 4.7 4.6 4.6 4.7 4.8 4.9 4.9 4.9 4.9 4.9 5.1 5.1 5.1 5.1 5.0 5.0 5.0 5.0 5.0 4.9 4.8 4.8 4.7 4.6 4.5 4.4 4.3 4.2 4.0 3.9 3.8 3.8 3.8
5.8 5.7 5.6 5.6 5.5 5.4 5.2 5.1 5.1 5.0 4.8 4.9 4.9 4.9 4.9 4.9 4.9 5.0 5.1 5.2 5.2 5.2 5.3 5.3 5.2 5.2 5.2 5.1 5.1 5.0 4.9 4.8 4.7 4.6 4.5 4.4 4.3 4.2 4.1 4.0 3.9 3.8 3.8
Wind_Speed
9 7 7 6 7 5 4 4 4 5 7 7 8 7 7 8 9 8 9 10 11 12 14 14 17 14 9 8 7 6 5 5 4 3 5 7 9 12 10 15 19 22 27
9 8 7 8 6 5 4 4 5 4 5 7 8 7 8 8 8 9 9 9 11 12 14 16 17 12 14 12 8 10 8 6 2 6 5 6 8 9 8 9 8 19 22
10 9 8 7 6 5 4 4 5 4 4 6 7 8 8 9 8 8 8 9 10 11 12 14 16 18 17 12 11 10 9 8 8 5 4 5 6 5 8 8 9 12 15
10 9 9 8 7 6 5 5 5 5 5 5 5 6 7 9 9 8 8 9 9 10 11 13 14 16 18 16 13 13 11 10 10 8 7 5 4 4 5 6 8 8 9
9 9 9 8 7 7 7 6 6 5 5 6 6 6 8 9 9 9 9 9 10 10 11 11 14 17 23 23 12 14 13 11 9 9 8 7 6 6 6 4 5 7 10
10 9 9 9 8 7 7 7 7 8 7 7 8 8 8 7 14 17 11 10 11 11 11 12 12 15 16 23 24 28 23 14 14 10 9 7 10 6 7 7 4 2 2
10 9 9 9 8 8 8 8 7 7 7 7 7 7 8 8 13 14 14 9 11 11 12 11 11 11 14 12 18 21 25 26 23 14 14 13 8 9 7 9 10 8 5
13 12 10 8 8 8 9 8 7 7 7 7 6 6 6 7 10 12 14 10 10 12 13 12 13 13 14 12 12 13 15 17 16 11 14 14 13 11 6 5 6 8 8
14 14 13 11 9 9 9 8 7 7 6 6 5 5 5 6 9 9 9 8 10 12 10 15 12 13 18 18 12 12 13 12 18 22 24 24 28 31 23 7 7 3 5
15 15 15 14 13 12 11 9 7 7 7 5 6 5 7 4 9 8 6 5 7 7 10 11 20 16 19 19 11 10 11 10 10 11 13 19 23 24 28 21 9 9 5
13 14 14 14 13 13 11 8 8 7 7 6 5 3 4 5 7 9 9 6 5 6 7 8 9 17 18 19 18 11 9 6 9 9 9 9 12 14 17 20 20 10 8
12 12 13 12 10 10 11 9 8 7 6 5 4 4 2 3 7 9 10 9 9 6 7 6 9 14 18 18 16 16 15 10 7 7 8 9 9 9 9 14 16 17 16
12 12 12 13 11 11 11 10 7 7 5 5 4 4 4 3 4 8 10 10 10 7 7 11 13 12 12 13 18 16 14 8 7 8 8 8 8 9 10 10 11 10 13
12 12 11 12 12 11 9 9 8 7 6 5 5 5 4 4 4 4 5 6 8 8 8 8 9 9 10 9 9 11 10 8 7 7 6 6 7 7 8 9 7 6 6
12 11 12 10 11 10 9 8 8 8 8 6 5 6 6 5 4 5 6 4 4 6 6 4 4 4 5 6 6 7 7 7 7 7 6 6 6 6 7 7 7 7 7
13 11 10 10 9 8 8 5 3 7 11 8 10 8 4 6 13 12 11 10 9 6 3 4 4 4 4 5 5 5 6 7 6 6 6 6 6 6 6 7 7 7 7
13 13 9 9 9 9 8 8 7 7 10 12 13 10 8 10 15 13 11 9 7 4 4 4 4 3 3 4 4 4 5 5 6 5 5 6 5 5 6 6 6 6 6
12 13 10 9 9 9 9 8 8 9 9 7 10 9 10 14 14 13 12 10 4 4 3 3 3 3 3 3 3 3 4 4 4 5 5 5 5 5 5 5 5 5 6
11 10 9 8 8 9 8 8 8 8 8 8 7 5 10 12 11 11 9 2 3 3 3 3 3 3 3 3 3 3 3 4 4 3 4 4 4 4 4 4 4 5 6
9 12 11 8 8 9 8 8 8 8 9 9 8 8 7 8 5 3 3 3 3 3 3 3 3 3 3 3 2 2 2 2 3 3 4 3 4 4 3 4 4 5 5
8 9 11 8 9 9 9 9 9 9 8 8 8 8 12 8 6 5 5 4 4 4 4 3 3 3 3 2 2 2 2 2 3 3 3 4 3 4 4 4 4 4 5
9 9 9 8 8 9 9 9 9 9 9 8 7 7 11 6 6 5 5 5 4 5 5 5 5 4 3 2 2 3 2 1 2 3 3 3 4 3 3 4 4 4 5
9 10 9 8 8 10 9 8 9 9 8 8 8 8 8 7 6 6 6 5 7 7 6 6 6 5 4 3 3 3 1 1 2 3 4 4 4 4 4 4 4 5 5
9 10 10 9 8 9 9 9 8 10 9 8 8 8 8 7 7 7 6 9 9 8 7 7 6 6 6 4 4 4 2 2 1 3 3 4 3 3 4 4 4 5 5
8 9 9 9 8 8 8 8 8 8 8 7 7 7 8 7 7 7 8 10 9 9 8 8 7 7 7 6 6 5 3 2 1 2 1 2 3 4 4 4 4 5 6
8 8 7 7 7 7 7 7 7 7 7 7 7 7 7 7 7 7 9 11 10 9 9 8 8 8 7 6 6 6 4 1 2 1 1 2 3 3 4 4 5 5 6
Wind_Direction
158 139 148 127 109 115 106 92 79 69 48 38 31 20 17 23 20 20 19 15 17 15 14 10 9 2 355 354 348 346 336 327 236 72 47 30 46 60 59 72 62 68 66
146 156 142 129 125 118 105 103 95 85 68 51 41 36 27 30 25 25 24 21 22 21 16 19 14 11 14 8 3 6 358 352 344 96 42 44 54 58 57 52 68 67 67
153 152 145 138 130 125 121 114 108 105 90 67 50 39 33 35 29 28 24 26 30 31 23 23 18 17 22 15 16 17 13 23 42 75 69 33 55 35 66 42 49 63 69
152 154 148 143 139 137 132 128 124 109 95 83 61 49 46 46 38 31 32 28 35 39 28 32 29 26 24 23 26 23 25 37 41 50 46 31 18 15 38 58 55 41 44
150 153 148 142 142 141 138 139 117 102 94 85 75 62 57 54 41 38 39 34 36 36 42 34 37 38 39 36 37 32 35 44 47 47 47 40 28 22 20 344 105 87 60
155 153 149 148 147 149 139 126 115 107 97 89 80 72 60 61 54 52 48 48 42 38 37 36 39 37 43 46 42 51 49 44 51 50 44 39 27 12 28 23 10 4 66
155 153 153 152 149 144 133 123 121 117 113 99 85 76 70 67 66 62 58 53 55 45 43 37 41 37 36 45 52 48 50 52 51 53 53 36 21 3 5 45 56 62 61
163 160 157 149 142 135 128 129 129 127 115 106 91 79 80 77 77 74 69 62 58 55 51 46 48 43 43 41 54 56 51 46 49 51 51 47 39 25 10 22 79 93 80
168 167 163 153 145 144 140 141 137 130 120 106 91 82 80 82 81 80 76 73 65 58 51 57 50 50 45 46 50 53 57 50 49 53 56 52 45 43 39 50 36 31 54
172 168 163 161 158 155 152 150 144 136 125 120 106 88 77 75 87 82 81 83 73 72 63 58 54 57 54 50 52 51 57 40 40 42 42 41 42 41 42 44 39 52 41
162 161 163 167 163 160 156 152 152 145 133 130 121 104 82 69 116 93 85 81 79 75 66 59 56 58 57 57 58 56 54 44 50 52 51 45 41 40 40 41 45 46 50
152 155 159 163 165 163 161 159 159 147 144 146 147 149 115 66 123 115 98 89 88 84 75 63 59 52 60 58 57 53 51 52 51 51 50 45 40 38 38 44 48 54 54
152 155 159 163 168 169 168 165 166 167 160 155 156 155 142 115 106 100 102 98 89 87 81 79 71 62 58 52 48 43 42 41 43 48 46 42 38 35 39 43 49 56 59
155 157 160 165 167 171 176 179 182 183 182 174 169 166 154 148 136 128 116 106 95 90 88 72 74 74 66 61 47 44 44 40 38 38 36 33 32 35 36 28 31 30 34
158 161 167 172 174 174 183 186 194 199 195 185 182 175 170 168 158 149 144 134 122 112 110 80 62 53 51 48 50 42 39 35 35 31 29 28 28 27 33 25 27 28 34
161 167 170 171 173 173 174 167 137 183 180 177 166 167 163 146 152 145 136 129 127 128 93 90 72 59 54 47 43 43 39 34 28 28 30 26 24 26 22 27 25 27 25
166 167 167 171 171 171 173 172 152 142 149 153 156 163 179 181 164 137 126 124 125 126 116 107 96 77 69 63 58 49 43 30 21 31 29 24 13 23 16 23 23 20 24
167 165 169 174 172 171 173 173 165 160 157 157 167 163 136 148 150 141 135 132 123 106 113 117 113 100 80 70 65 64 53 40 35 29 33 28 12 13 15 17 19 9 5
163 169 169 169 171 168 167 169 170 167 167 161 154 144 159 136 139 138 145 213 173 151 139 132 119 108 96 87 89 81 55 49 35 31 31 22 15 360 11 5 2 356 330
162 159 162 162 162 166 166 171 173 171 168 171 175 169 153 136 158 149 140 156 162 156 153 146 133 115 108 108 125 124 91 50 36 23 20 11 2 347 352 340 347 338 344
166 165 161 161 171 171 172 177 176 175 177 181 183 176 176 180 170 167 163 166 165 161 158 151 144 137 132 132 137 132 94 57 36 15 5 359 347 338 343 335 327 329 330
169 169 173 173 171 173 177 179 181 183 185 184 180 175 178 188 179 171 168 165 156 155 158 160 161 160 151 140 143 147 130 77 23 14 2 344 334 325 328 330 329 329 323
171 171 174 175 175 172 176 182 186 189 190 190 183 177 181 190 186 178 169 161 162 162 163 166 164 159 148 139 147 150 135 63 44 5 342 340 339 340 324 322 324 321 334
170 174 176 176 174 179 184 186 190 194 192 188 185 184 184 184 182 176 165 164 162 162 164 165 170 168 159 157 162 158 131 121 32 348 331 330 329 334 326 319 315 325 313
169 173 176 176 177 182 180 183 185 184 181 178 178 180 177 174 173 169 164 166 166 167 170 172 176 173 173 171 175 174 159 116 331 322 303 316 329 319 323 313 324 311 315
164 167 169 170 175 178 178 177 177 174 174 172 173 175 173 174 173 169 168 171 171 174 172 178 181 179 177 183 191 187 189 255 296 247 258 315 325 333 328 318 316 312 312